Temp_Advection
nan nan nan nan nan nan nan nan nan nan nan nan nan nan nan nan nan nan nan nan nan nan nan nan nan nan nan nan nan nan nan nan nan nan nan nan nan nan nan nan nan nan nan nan nan nan nan nan nan nan nan nan nan nan
nan 1 0 0 0 -0 -0 -0 -0 0 -0 0 1 0 -0 -0 0 -0 -0 0 0 -0 -1 -1 -1 -1 -0 -0 0 0 0 -0 -0 -0 -0 0 0 0 0 0 0 -0 -0 -0 -0 -0 -0 -0 -0 0 0 0 0 nan
nan 0 0 0 0 0 0 -0 -1 -0 0 0 1 1 -0 -0 0 0 -0 0 0 -0 -1 -2 -3 -0 -0 -0 -0 -0 -0 -0 -0 -0 -0 -0 0 -0 0 -0 -0 -0 -0 0 0 -0 -0 -1 0 -0 0 0 0 nan
nan 0 0 1 0 0 0 -0 0 -0 -0 -0 0 0 0 -0 -0 0 0 0 0 -0 -0 -1 -0 -0 -0 -0 -0 -0 -0 0 -0 0 -0 -0 0 -0 0 0 0 -0 -0 0 -0 -1 -1 -0 0 -0 0 0 0 nan
nan 0 0 0 0 0 0 -0 -0 -0 -0 -0 0 0 0 -0 -0 0 0 0 0 -0 -0 -1 -3 -1 -0 -0 -0 -0 0 0 0 0 0 0 -0 -0 0 -0 -0 -0 -0 0 -0 -0 -0 -1 -0 -0 -0 0 0 nan
nan 0 0 0 0 0 -0 -0 0 0 -0 -0 0 0 0 -0 0 0 -0 0 0 0 -0 -0 -1 -0 0 0 0 0 0 0 0 0 0 0 -0 -0 0 -0 -0 0 0 0 -0 -1 -1 -1 -1 -0 0 0 0 nan
nan 1 0 0 0 0 0 -0 -0 0 0 0 0 -0 -0 0 0 0 0 0 0 -0 -0 -0 -1 0 -0 0 0 0 0 0 0 0 0 0 0 0 -0 0 -0 -0 -1 0 0 -1 -1 -0 -0 -0 0 0 0 nan
nan 0 0 0 0 0 -0 -0 -0 -0 0 -0 0 0 -0 -0 0 -0 -0 0 -0 -0 -0 -0 -0 0 0 -0 0 0 0 0 0 0 0 0 0 0 0 -0 -0 -0 -2 -1 0 -0 -1 -1 -1 -0 0 0 0 nan
nan 0 0 0 0 0 -0 -0 -0 -0 -0 -0 0 -0 -0 0 -0 -0 -0 0 -0 -0 -0 -0 -0 0 0 0 0 0 0 0 0 0 0 0 0 0 0 -0 -0 -0 -0 -1 -2 -2 -1 -0 -0 -0 0 0 0 nan
nan 0 0 0 0 -0 -0 -0 -0 -0 -0 -0 0 0 -0 0 -0 -0 -0 -0 -0 -0 -0 -0 -0 0 0 -0 0 0 0 0 0 0 0 0 0 -0 -0 -0 -0 -0 0 0 -1 -1 -1 -1 -1 -1 0 0 0 nan
nan 0 0 0 0 -0 -0 -0 -0 -0 -0 0 0 -0 0 -0 -0 -0 -0 -0 -0 -0 -0 -0 -0 0 0 0 -0 0 0 0 -0 0 0 0 0 -0 -0 -0 -0 -0 -0 0 0 -0 -0 -1 -1 -1 -0 0 0 nan
nan 0 0 0 0 -0 -0 -0 0 -0 -0 0 0 -0 0 -0 -0 -0 -0 -0 -0 -0 -0 -0 -0 -0 0 0 0 0 -0 0 0 -0 -0 0 -0 -0 -0 -0 -0 -0 -0 -0 0 -0 -0 -0 -0 -0 -0 0 0 nan
nan 0 0 0 0 -0 0 -0 0 -0 0 0 -0 -0 -0 -0 -0 0 -0 -0 0 0 -0 -0 -0 0 0 -0 -0 0 0 0 0 -0 0 0 -0 -0 -0 -0 0 0 -0 -0 0 0 -0 -0 -0 -0 -0 0 0 nan
nan 0 0 0 -0 -0 0 0 -0 -0 0 0 -0 -0 -0 -0 0 0 -0 -0 0 0 0 0 0 0 -0 -0 0 0 0 -0 -0 -0 0 -0 -0 0 0 0 0 0 0 0 0 0 -0 -0 -0 -0 -0 0 0 nan
nan -0 0 -0 -0 0 0 0 -0 -0 0 0 0 -0 -0 -0 -0 -0 0 -0 -0 0 0 0 0 -0 0 0 0 0 -0 -0 0 0 0 0 -0 0 0 0 0 0 0 0 0 0 -0 -0 -0 -0 -0 0 0 nan
nan 0 -0 0 0 0 0 0 -0 0 0 0 0 -0 -0 -0 -0 -0 0 0 -0 -0 0 0 -0 -0 -0 -0 -0 -0 0 0 0 0 -0 -0 -0 -0 0 0 0 0 0 0 -0 -0 -0 -0 -0 -0 0 0 0 nan
nan 0 0 0 0 0 0 -0 0 0 0 0 -0 -0 -0 -0 -0 -0 -0 0 0 -0 0 0 -0 0 -0 -0 0 0 0 0 0 -0 -0 -0 -0 0 -0 0 0 0 0 -0 -0 -0 -0 -0 -0 -0 -0 -0 -0 nan
nan -0 0 0 0 0 -0 -0 0 0 0 -0 -0 -0 -0 -0 -0 -0 -0 0 0 0 -0 0 -0 0 -0 0 0 0 0 0 -0 -0 -0 0 0 -0 -0 -0 -0 -0 -0 -0 -0 -0 -0 -0 -0 -0 -0 -0 -0 nan
nan 0 0 0 0 0 0 0 0 0 0 0 -0 -0 -0 -0 -0 0 0 0 0 -0 -0 0 -0 -0 0 0 -0 -1 -1 -0 0 0 0 0 0 0 -0 -0 -0 -0 -0 -0 -0 -0 -0 -0 -0 -0 -0 -0 -0 nan
nan 0 0 0 0 -0 0 0 0 0 0 -0 -0 -0 -0 0 0 0 0 0 -0 0 0 -0 -0 -0 -0 -0 -0 -0 -0 0 0 0 0 0 0 0 -0 -0 -0 -0 -0 -0 -0 -0 -0 -0 -0 -0 -0 -0 -0 nan
nan 0 0 0 0 -0 -0 0 0 0 0 0 -0 -0 0 0 0 0 0 0 0 0 -0 -3 -2 -1 -0 0 0 0 1 0 0 0 0 0 0 0 0 -0 -0 0 -0 -0 -0 -0 -0 -0 -0 -0 -0 -0 0 nan
nan 0 0 0 0 0 0 0 0 0 0 0 0 0 0 0 0 0 0 0 -0 -1 -2 -1 -1 0 0 0 1 1 0 0 0 0 0 0 0 0 0 -0 -0 -0 0 -0 -0 -0 -0 0 -0 -0 -0 -0 -0 nan
nan 0 0 0 0 0 0 0 0 0 -0 -0 0 -0 0 -0 0 0 -0 -0 -2 -3 -1 -0 -0 0 1 1 1 1 0 0 0 0 0 0 0 0 0 0 -0 -0 -0 0 0 -0 -0 -0 -0 0 -0 -0 -0 nan
nan 0 0 1 1 0 0 1 0 0 0 0 0 -0 -0 -0 0 0 -0 -2 -4 -1 0 1 1 1 0 0 0 0 0 0 0 0 -0 -0 0 0 0 0 0 0 -0 -0 0 0 0 -0 -0 -0 -0 0 0 nan
nan 0 0 0 1 -0 -0 0 -0 0 1 -0 0 -0 -0 0 0 -0 -1 -2 -2 -0 1 1 0 -0 -1 -0 0 0 0 -0 -0 -0 0 -0 0 -0 0 0 0 1 -0 -1 -0 -0 0 1 0 -0 -0 -0 0 nan
nan 1 0 0 0 -0 -0 -1 -1 0 -0 -0 -0 -0 -0 -0 0 -1 -1 -1 -0 0 -0 -1 -0 -0 -1 -0 -0 -0 -0 0 0 -0 0 1 0 0 -0 -0 -1 0 1 0 -1 -1 -0 0 0 0 0 0 0 nan
nan 0 0 0 -0 -0 0 -0 -0 -0 -0 -1 -0 0 0 -0 -0 -1 -1 -0 -0 -0 -0 -0 -0 -0 -0 0 0 0 0 0 0 0 0 0 1 1 1 -0 -1 -0 0 0 1 -0 -1 -0 1 0 -0 0 1 nan
nan -0 -0 2 0 0 -0 0 0 -1 -1 -1 -1 -0 -0 -1 -1 -0 -0 -0 -0 -0 0 0 0 0 0 0 0 0 0 1 1 1 0 -0 1 1 1 0 0 -0 -1 -0 0 1 0 -1 -0 0 -0 -0 0 nan
nan 0 -1 -0 1 0 -1 -1 -1 -2 -1 -0 -0 -0 -1 -2 -1 -0 -0 -0 -0 -0 0 0 0 0 0 0 1 1 1 1 1 0 -0 -1 -0 2 2 0 0 0 -0 -0 1 1 0 -0 -0 0 -0 -0 -0 nan
nan 0 0 -1 0 -1 -2 -1 -1 0 1 -0 -0 -0 -1 -2 -1 0 1 -0 -0 -0 0 1 0 0 1 1 1 1 1 1 1 0 -0 -0 0 1 1 1 1 0 0 0 -0 -0 1 0 -0 -0 0 -0 -0 nan
nan 1 0 1 -0 -1 1 1 1 0 1 0 1 -0 -2 -2 -2 -1 -1 -0 0 1 1 0 0 1 1 0 1 1 1 0 0 1 1 1 1 1 1 1 1 0 0 0 -0 -0 -0 -0 -0 -0 -0 -1 -1 nan
nan 1 0 0 -0 0 1 1 0 1 0 -0 0 0 0 -0 -1 -2 -1 0 1 0 0 0 -0 0 1 0 0 0 0 0 1 1 1 0 0 1 0 1 1 1 0 -0 -1 -0 -0 -0 -0 -1 -1 -1 -0 nan
nan nan nan nan nan nan nan nan nan nan nan nan nan nan nan nan nan nan nan nan nan nan nan nan nan nan nan nan nan nan nan nan nan nan nan nan nan nan nan nan nan nan nan nan nan nan nan nan nan nan nan nan nan nan
Wind_Speed
16 13 14 15 18 21 16 13 11 16 17 20 18 11 12 9 12 12 6 3 5 5 20 16 8 4 3 2 3 4 3 1 2 2 3 3 2 3 2 3 5 8 6 3 4 4 6 5 3 3 3 6 8 10
16 14 17 18 21 22 20 14 15 12 14 19 19 16 11 9 11 12 12 9 10 10 12 13 17 19 18 8 1 5 2 4 6 3 1 2 2 0 3 2 0 3 6 4 7 5 4 2 8 8 8 9 8 10
17 15 20 22 22 18 13 12 15 11 10 15 18 19 13 14 12 13 15 14 14 9 20 20 26 21 19 18 11 4 4 5 4 3 2 1 1 3 3 4 3 3 6 3 1 3 6 12 16 12 9 11 11 10
17 19 20 22 17 17 14 15 14 12 9 15 19 21 15 13 13 14 18 16 11 7 5 9 3 18 14 18 17 11 4 7 6 4 2 1 2 4 2 2 2 4 1 3 5 7 12 11 4 5 12 12 11 9
19 20 22 17 16 15 16 11 16 9 8 15 20 17 16 18 18 17 18 17 11 10 5 13 28 16 19 21 17 13 11 10 6 3 2 3 2 2 2 1 3 4 4 3 4 6 6 14 12 17 14 13 10 8
23 20 17 16 18 18 19 17 13 14 10 17 21 17 19 13 12 9 5 6 13 16 5 4 10 14 18 19 16 14 15 10 7 5 3 3 3 3 2 2 3 5 4 4 6 17 22 26 24 18 14 11 9 7
25 20 19 19 22 21 18 11 13 12 11 19 19 18 8 7 9 6 3 3 5 16 4 4 4 8 18 16 13 12 14 6 7 3 4 3 5 9 2 3 3 8 11 15 11 16 10 11 11 8 10 8 9 8
18 17 20 19 17 12 10 10 15 12 14 20 19 2 1 3 2 9 11 4 15 7 5 3 4 4 14 6 4 5 6 7 5 2 3 3 4 4 3 2 6 10 16 15 10 18 16 17 13 11 10 10 10 10
19 18 19 18 14 14 10 10 15 11 17 19 4 4 3 2 2 1 2 7 5 8 4 4 1 2 6 4 4 4 4 2 4 2 3 6 3 4 1 4 9 13 11 18 21 21 19 14 11 10 11 12 12 12
21 18 16 15 11 12 14 12 15 13 17 8 6 3 3 3 6 2 4 3 5 5 6 3 5 1 4 4 2 5 4 2 3 2 4 3 2 7 2 7 10 13 13 14 18 17 16 13 14 14 11 10 11 11
14 13 14 12 9 6 6 11 10 14 11 3 3 3 6 4 3 3 3 4 4 3 5 4 2 1 1 1 2 3 2 0 2 2 2 2 2 2 7 8 8 10 11 11 11 15 16 17 20 16 13 13 13 13
13 13 12 14 10 7 7 10 9 11 8 3 2 1 4 4 3 2 2 2 3 2 2 1 0 1 2 2 2 1 2 1 2 4 1 2 2 4 8 8 8 8 9 9 9 11 10 9 9 13 15 15 15 14
14 13 13 12 8 7 7 9 9 11 7 2 2 1 2 3 3 4 4 3 2 1 2 0 0 0 1 2 3 1 1 2 3 1 3 2 3 5 8 9 8 8 8 8 8 7 7 5 5 7 9 9 11 13
13 9 9 9 10 7 9 10 8 8 3 3 3 2 3 3 4 3 1 1 1 2 2 2 2 1 1 2 1 1 2 1 2 2 4 2 3 5 8 11 11 11 10 10 11 10 10 9 7 5 2 3 7 10
10 8 7 8 9 7 12 9 6 5 3 3 3 3 4 4 3 2 1 1 1 2 2 1 1 1 1 1 2 1 2 3 4 3 2 7 6 4 6 10 13 14 14 14 13 12 10 8 7 5 4 5 6 9
11 8 9 8 8 9 6 6 6 3 3 3 4 3 5 3 1 2 2 2 3 3 3 2 1 2 3 2 3 5 3 5 3 2 7 8 6 2 5 10 12 13 14 14 13 11 10 8 6 6 6 7 7 8
14 11 8 9 6 5 6 5 3 3 3 3 4 8 7 6 5 4 3 2 4 2 2 2 4 4 1 3 3 3 3 2 10 12 9 6 3 1 5 10 12 12 12 13 13 12 10 8 7 6 5 5 7 9
14 6 7 5 5 5 5 4 2 3 5 6 3 2 7 5 3 4 4 5 3 3 2 2 2 3 3 3 3 3 4 10 13 10 6 3 2 5 7 10 11 12 12 13 13 13 12 10 7 5 6 7 7 8
6 5 8 6 5 3 1 3 3 3 3 2 5 7 6 5 7 9 7 7 6 5 4 3 3 3 4 6 5 7 12 13 12 13 9 6 6 5 8 10 11 12 13 14 14 13 13 13 11 9 8 7 8 8
9 7 7 8 5 2 2 2 3 4 3 2 4 4 4 4 6 9 11 9 7 3 3 4 4 4 6 4 5 6 13 13 9 8 7 7 7 7 8 8 9 10 11 11 13 12 11 10 10 12 11 9 9 9
19 14 12 7 5 5 2 2 3 3 4 3 3 3 5 6 6 6 8 11 6 6 4 14 16 12 11 8 7 8 13 13 11 9 7 6 7 7 7 8 10 11 12 13 14 14 13 13 14 14 12 12 12 11
17 20 15 10 4 3 4 5 2 2 3 3 3 3 4 3 3 4 5 9 8 11 15 18 19 17 19 18 12 12 12 12 12 10 8 8 7 7 7 8 10 10 12 13 15 17 17 16 15 14 13 12 13 13
17 21 10 7 6 5 3 4 3 2 1 2 2 2 3 3 3 3 5 9 11 18 23 26 24 22 17 15 15 16 15 13 12 10 9 8 8 8 10 11 13 16 18 16 17 18 18 17 16 16 15 12 14 13
17 11 8 8 8 3 4 4 3 2 2 1 1 3 3 3 2 3 4 7 15 17 18 19 21 22 20 20 20 18 14 13 13 13 10 10 10 10 13 15 17 17 18 20 21 20 19 17 17 17 16 15 15 14
4 5 5 3 6 4 2 0 1 2 3 3 2 4 2 1 1 3 4 7 12 18 18 17 17 19 20 18 16 14 15 16 15 14 12 14 15 16 18 18 19 19 18 18 17 19 20 20 18 18 18 17 15 15
4 9 10 11 4 6 6 5 6 7 3 3 5 1 1 2 1 6 3 5 8 9 9 15 16 16 17 16 14 14 14 13 14 16 15 15 16 18 20 23 24 22 17 16 18 19 20 21 21 19 19 18 15 15
5 7 8 8 6 5 2 2 4 3 5 6 3 3 2 2 6 5 6 7 5 2 6 7 8 9 6 8 10 12 13 15 16 17 17 19 21 23 25 25 23 21 21 23 24 22 21 22 23 21 21 19 18 16
11 14 8 13 8 9 5 3 4 7 5 7 10 5 7 7 4 3 4 5 6 7 8 8 8 10 12 13 14 15 17 19 20 21 23 24 27 28 25 19 18 20 24 26 28 28 24 22 22 23 22 21 19 17
8 12 14 4 5 6 11 9 6 11 8 14 5 5 5 9 10 8 8 7 8 11 12 12 12 12 14 16 20 22 24 24 23 24 27 30 28 23 24 22 20 22 24 25 25 25 24 21 20 20 19 17 17 17
11 19 9 8 7 8 11 16 8 12 16 18 11 8 10 17 20 21 20 18 17 17 16 16 17 18 20 21 22 24 24 24 24 24 24 24 25 25 26 25 24 23 23 25 26 25 22 23 23 22 20 20 18 17
13 22 7 10 7 10 16 17 16 13 14 14 21 21 21 18 30 33 32 32 32 32 32 31 31 30 28 25 22 20 17 15 16 18 20 23 25 25 25 24 24 23 21 21 22 23 21 18 18 18 18 19 19 19
15 16 11 4 4 8 12 12 8 7 6 8 9 12 13 10 9 18 22 22 21 21 20 21 21 20 19 15 12 11 14 17 19 20 22 23 24 24 23 21 19 17 16 17 18 18 17 17 16 16 16 16 15 18
7 7 5 6 4 5 9 8 7 3 5 5 6 8 9 7 9 9 11 15 14 10 9 7 8 7 7 8 11 13 16 17 19 20 21 21 21 18 18 22 19 14 15 16 14 12 12 13 14 14 13 13 15 15
Wind_Direction
247 248 289 299 302 293 296 288 294 296 312 322 326 315 320 327 325 328 332 307 306 268 265 262 256 286 313 183 156 179 90 349 64 130 159 205 173 227 158 179 170 184 175 185 187 211 253 186 112 187 225 311 301 288
243 252 297 306 289 292 278 283 295 281 300 308 321 315 300 302 309 310 310 309 295 266 261 261 261 247 246 237 71 188 249 160 169 110 202 143 164 113 173 227 93 197 190 180 197 215 249 188 271 294 299 304 300 302
241 284 287 274 278 289 275 280 292 293 294 304 314 316 312 301 284 287 294 303 307 287 289 268 263 253 244 226 211 216 231 160 170 124 148 131 203 136 192 239 204 247 186 218 163 271 236 286 299 274 304 311 312 310
258 274 266 253 278 272 281 266 288 276 285 311 306 313 292 292 281 276 274 288 273 279 276 284 305 223 220 216 205 201 234 156 146 156 126 186 235 184 221 237 203 219 359 206 264 297 303 290 259 305 318 318 315 312
257 270 265 260 267 258 271 268 272 272 284 305 305 310 302 294 287 282 275 268 258 228 308 297 309 220 203 203 200 200 194 174 178 176 171 213 182 165 220 105 241 199 208 174 241 277 269 287 299 314 298 307 313 301
262 253 256 253 250 255 265 278 295 287 296 304 311 298 299 287 290 290 277 251 233 219 265 291 281 189 182 183 190 201 195 192 180 217 180 209 193 144 243 237 259 198 336 323 286 291 284 286 290 288 275 289 296 293
252 260 245 257 257 271 279 277 300 303 323 309 309 304 300 292 249 230 254 236 196 190 245 266 278 140 159 154 169 183 192 186 197 223 178 202 198 179 233 239 69 347 331 322 303 343 287 285 284 288 269 269 283 282
251 247 245 253 267 267 270 291 301 313 319 311 311 254 81 10 205 240 237 286 172 181 245 262 265 99 156 143 139 181 181 193 205 198 176 186 138 217 248 66 340 330 326 309 287 308 298 300 290 266 257 261 271 264
224 243 253 261 263 257 265 296 311 325 311 319 278 155 203 242 228 259 233 274 242 227 273 260 295 109 137 102 115 127 153 148 184 213 212 170 176 220 145 313 322 323 317 303 305 302 298 278 274 263 264 265 260 251
232 243 248 260 254 264 252 295 310 316 319 314 181 197 227 211 228 252 217 212 216 218 228 261 300 92 158 162 152 143 181 218 199 200 167 218 217 136 31 324 306 310 310 315 318 321 320 307 273 269 269 280 265 255
234 231 248 239 251 253 278 301 311 312 327 273 224 216 207 209 213 223 216 213 215 240 219 247 292 65 118 139 115 166 227 130 184 187 228 218 229 161 316 323 320 312 312 315 304 299 302 292 271 263 272 278 266 250
231 236 219 232 259 246 279 309 301 312 322 286 238 217 187 203 212 249 233 213 216 246 213 283 248 45 122 130 148 174 133 96 222 147 210 237 122 7 341 336 338 335 334 332 332 325 317 300 282 264 265 270 256 242
211 208 226 256 223 232 277 302 292 310 316 245 227 212 216 192 217 210 209 212 195 310 338 87 305 80 103 91 67 64 93 219 126 209 234 192 125 22 9 357 6 0 356 353 354 2 359 348 317 290 279 265 236 231
179 184 196 213 210 240 292 305 278 298 295 222 210 207 205 230 232 208 230 340 111 86 68 52 79 94 83 65 137 164 227 110 244 237 233 148 136 54 36 27 25 22 23 18 11 3 1 351 356 350 312 254 236 230
176 184 201 209 214 248 278 278 264 292 256 220 204 226 221 256 264 271 181 293 332 145 137 117 54 96 329 147 217 165 206 242 224 229 164 158 139 90 39 26 25 25 24 22 18 12 4 352 339 323 306 268 244 225
191 185 199 205 236 269 254 235 264 259 251 228 234 269 251 303 290 260 216 212 258 234 164 162 236 187 230 189 183 213 195 223 236 165 156 160 151 116 23 11 8 10 13 16 16 11 3 351 337 315 293 283 255 241
182 201 212 218 239 240 232 259 239 214 242 227 248 236 254 285 265 296 268 212 228 228 225 188 211 199 100 201 221 202 219 216 163 150 150 140 152 302 331 348 349 348 351 356 359 1 3 357 341 325 300 280 267 262
205 192 204 232 231 225 242 221 238 238 251 233 237 220 221 232 258 265 254 241 234 225 242 253 291 205 205 222 243 219 170 151 157 160 160 176 295 312 316 331 337 335 332 330 332 338 338 339 339 325 307 291 270 256
195 209 195 208 209 201 217 212 234 260 258 254 260 254 247 237 247 247 251 251 243 247 282 260 228 209 220 219 213 197 186 175 191 193 204 237 283 287 310 324 329 328 330 328 325 322 327 328 325 319 305 292 279 263
175 205 188 179 188 229 228 222 234 263 265 288 261 255 249 238 233 245 241 243 247 246 246 223 220 210 213 218 221 213 200 196 189 190 223 257 259 283 298 306 315 326 332 333 333 325 317 317 311 308 306 293 278 267
170 166 175 199 216 220 261 244 243 266 290 278 290 266 269 262 249 239 246 237 226 226 237 233 233 231 232 239 233 217 207 211 225 246 256 249 257 273 285 298 310 321 325 331 331 329 327 324 322 315 306 305 293 272
187 190 188 206 223 222 249 227 237 264 259 270 268 246 267 268 240 222 212 205 234 230 225 237 244 247 247 244 237 222 225 230 240 242 247 259 272 282 292 301 306 311 319 326 322 321 321 319 313 310 305 292 284 283
202 199 191 192 202 222 224 204 219 233 103 268 276 309 246 244 224 215 247 232 247 245 242 241 243 246 244 229 225 225 230 233 231 231 242 256 266 283 296 304 308 315 318 324 319 317 313 310 308 302 301 286 282 279
193 178 192 195 200 202 197 190 208 228 242 277 180 275 253 232 216 235 254 252 242 248 243 241 236 232 231 228 226 227 228 231 234 243 258 273 287 299 303 311 308 302 305 309 312 310 308 304 300 296 293 286 274 272
204 204 198 200 188 140 149 136 292 179 248 223 181 288 284 207 321 256 237 266 265 263 251 232 224 223 230 233 230 225 224 229 237 255 261 273 282 287 290 296 300 296 295 300 298 297 300 300 297 292 290 287 274 272
208 205 189 195 196 174 184 163 195 201 186 201 230 199 159 73 350 250 237 264 286 267 238 217 215 215 223 220 219 217 224 233 240 252 264 272 281 288 293 300 303 299 304 294 292 291 294 296 295 290 282 278 274 270
230 225 196 196 170 155 151 167 161 140 189 196 201 154 123 246 248 253 271 277 271 183 148 168 196 209 202 206 214 219 229 238 247 259 270 280 286 290 293 295 295 297 294 294 293 292 290 288 288 287 283 274 264 258
223 190 178 181 176 186 155 173 187 206 207 189 146 181 184 210 247 265 279 289 222 193 180 182 195 205 213 218 227 235 243 252 257 264 271 280 289 295 296 292 290 288 287 288 288 287 285 280 277 278 277 278 269 257
211 191 167 137 143 192 211 197 213 209 201 183 181 206 221 217 244 271 290 285 257 238 230 226 229 237 246 255 260 263 266 267 267 272 280 287 293 293 294 291 289 291 289 285 281 279 278 275 272 274 275 278 275 253
203 184 165 167 168 211 218 204 220 219 207 210 220 245 249 250 260 268 273 275 275 270 263 252 244 251 265 272 273 272 272 272 273 276 280 285 289 291 292 297 297 294 289 284 280 278 273 266 265 265 262 260 263 251
197 186 181 182 209 222 222 222 228 229 226 235 239 249 258 273 274 279 279 277 276 270 263 258 257 260 267 273 275 273 272 273 277 281 283 285 288 291 294 293 291 290 287 282 278 277 272 264 261 255 250 247 249 249
180 189 174 190 242 212 205 202 210 216 228 233 243 242 257 266 272 281 270 274 270 266 265 260 256 260 257 254 256 268 277 284 287 289 293 294 295 297 296 294 293 288 283 284 284 277 261 260 258 249 248 243 236 240
158 164 173 147 146 193 192 186 197 254 236 244 242 242 236 240 246 254 254 248 249 243 230 220 217 221 236 256 268 277 286 292 296 297 297 297 302 306 311 309 301 289 280 275 275 272 262 251 247 242 238 230 227 231
Height
1483 1485 1485 1484 1483 1482 1481 1480 1479 1479 1476 1474 1471 1470 1469 1467 1466 1464 1463 1461 1462 1459 1451 1451 1450 1448 1447 1447 1450 1450 1452 1452 1455 1458 1460 1460 1462 1457 1457 1455 1458 1462 1464 1464 1468 1468 1463 1442 1445 1446 1443 1439 1439 1437
1479 1480 1480 1480 1479 1478 1477 1477 1475 1474 1473 1472 1470 1467 1466 1466 1465 1463 1461 1461 1459 1458 1449 1445 1444 1445 1446 1447 1448 1448 1449 1447 1449 1454 1457 1456 1457 1459 1459 1458 1455 1459 1456 1458 1459 1452 1441 1441 1441 1440 1439 1437 1436 1433
1476 1476 1476 1475 1475 1475 1474 1473 1472 1471 1471 1469 1467 1465 1463 1462 1461 1460 1458 1458 1457 1453 1443 1438 1436 1439 1440 1441 1446 1447 1447 1446 1447 1448 1450 1452 1457 1457 1459 1458 1451 1449 1447 1449 1450 1438 1438 1437 1436 1435 1436 1435 1433 1430
1471 1472 1472 1471 1472 1471 1471 1470 1468 1467 1467 1466 1463 1461 1460 1458 1457 1456 1454 1454 1455 1455 1448 1432 1429 1431 1435 1437 1440 1443 1445 1445 1447 1448 1449 1450 1452 1452 1454 1452 1452 1448 1446 1445 1444 1437 1435 1433 1433 1434 1433 1432 1430 1428
1465 1466 1467 1468 1468 1467 1467 1466 1464 1464 1463 1461 1459 1457 1456 1454 1452 1451 1450 1450 1451 1455 1446 1435 1426 1423 1428 1433 1436 1440 1442 1444 1446 1448 1448 1449 1449 1451 1450 1451 1450 1443 1443 1446 1444 1437 1438 1434 1432 1432 1430 1429 1427 1426
1460 1461 1462 1463 1463 1463 1463 1462 1461 1460 1458 1457 1455 1453 1451 1448 1447 1447 1446 1445 1445 1448 1449 1439 1424 1420 1424 1430 1433 1437 1440 1442 1444 1445 1444 1445 1445 1448 1448 1445 1438 1439 1440 1440 1439 1436 1433 1430 1429 1428 1426 1426 1425 1424
1455 1456 1458 1459 1459 1459 1459 1459 1458 1455 1454 1453 1451 1448 1446 1444 1444 1446 1445 1443 1442 1446 1447 1437 1421 1419 1422 1428 1433 1436 1438 1439 1441 1440 1442 1443 1444 1445 1444 1439 1437 1437 1436 1435 1435 1431 1427 1425 1425 1424 1423 1423 1423 1422
1450 1452 1453 1454 1455 1456 1456 1456 1454 1451 1451 1449 1446 1444 1444 1444 1443 1443 1443 1442 1443 1443 1443 1436 1418 1418 1424 1427 1429 1433 1435 1437 1437 1439 1440 1441 1443 1442 1437 1435 1436 1435 1433 1431 1430 1430 1428 1424 1421 1420 1420 1420 1420 1420
1446 1448 1450 1451 1451 1452 1453 1452 1451 1448 1447 1445 1443 1443 1443 1443 1443 1443 1443 1443 1444 1447 1440 1431 1421 1419 1422 1425 1427 1431 1433 1435 1437 1437 1437 1439 1435 1434 1434 1435 1434 1432 1432 1429 1426 1422 1421 1420 1419 1418 1417 1417 1417 1418
1443 1445 1446 1448 1448 1449 1449 1449 1448 1446 1444 1442 1443 1443 1442 1442 1441 1441 1442 1442 1441 1439 1437 1430 1423 1420 1424 1424 1427 1431 1432 1433 1433 1433 1433 1432 1430 1432 1433 1432 1431 1430 1428 1425 1421 1417 1416 1415 1415 1415 1415 1415 1415 1416
1439 1442 1443 1445 1446 1446 1447 1447 1445 1444 1442 1441 1441 1441 1441 1440 1441 1440 1438 1438 1434 1432 1429 1426 1424 1423 1424 1425 1426 1429 1430 1430 1429 1433 1431 1430 1426 1431 1431 1430 1429 1426 1424 1422 1420 1417 1414 1412 1411 1412 1412 1413 1412 1413
1436 1438 1440 1442 1443 1444 1445 1445 1444 1443 1441 1440 1439 1439 1440 1439 1439 1439 1435 1433 1430 1428 1426 1425 1425 1424 1425 1426 1427 1429 1429 1432 1428 1431 1431 1425 1427 1429 1428 1427 1425 1423 1421 1418 1415 1413 1410 1408 1407 1407 1408 1408 1408 1410
1433 1436 1438 1439 1441 1442 1443 1443 1442 1441 1440 1439 1439 1438 1438 1438 1436 1434 1433 1427 1425 1426 1425 1425 1426 1426 1426 1426 1427 1428 1428 1429 1430 1429 1423 1424 1427 1427 1426 1424 1423 1420 1418 1416 1412 1411 1409 1407 1406 1405 1404 1404 1405 1408
1431 1433 1435 1437 1439 1440 1441 1440 1440 1439 1439 1439 1438 1436 1435 1434 1430 1429 1427 1426 1426 1425 1425 1425 1425 1427 1427 1428 1429 1429 1428 1429 1428 1426 1419 1422 1423 1424 1424 1423 1421 1419 1417 1414 1412 1409 1407 1406 1405 1404 1403 1404 1405 1406
1429 1431 1433 1435 1437 1438 1438 1438 1438 1437 1437 1437 1436 1433 1430 1428 1427 1427 1426 1427 1426 1425 1426 1427 1427 1428 1428 1428 1429 1429 1427 1424 1419 1415 1419 1420 1421 1423 1423 1422 1420 1418 1416 1413 1411 1409 1408 1407 1406 1405 1405 1404 1405 1406
1428 1430 1431 1434 1435 1435 1435 1436 1436 1436 1435 1435 1433 1431 1427 1427 1426 1426 1426 1426 1427 1426 1426 1426 1426 1427 1424 1425 1426 1422 1422 1416 1415 1415 1417 1419 1420 1421 1422 1421 1419 1417 1415 1414 1412 1410 1408 1407 1406 1406 1405 1405 1404 1405
1427 1428 1429 1431 1433 1433 1435 1435 1434 1433 1433 1431 1428 1427 1428 1427 1426 1426 1425 1425 1426 1427 1424 1424 1422 1419 1423 1421 1420 1416 1413 1412 1412 1414 1416 1418 1419 1420 1420 1419 1418 1416 1415 1414 1412 1410 1409 1407 1406 1405 1404 1404 1404 1404
1424 1426 1428 1430 1431 1432 1432 1432 1432 1431 1429 1427 1427 1425 1426 1425 1425 1425 1424 1424 1426 1425 1424 1422 1422 1419 1417 1414 1416 1410 1410 1411 1413 1415 1416 1417 1418 1418 1418 1418 1417 1415 1414 1413 1411 1410 1408 1407 1405 1404 1403 1402 1401 1402
1423 1425 1427 1428 1429 1431 1431 1431 1432 1429 1426 1425 1425 1425 1425 1423 1423 1423 1424 1424 1424 1424 1423 1421 1419 1415 1411 1408 1406 1407 1409 1410 1411 1413 1415 1416 1416 1416 1416 1415 1415 1414 1413 1411 1409 1408 1407 1405 1404 1402 1401 1400 1399 1400
1422 1424 1425 1427 1429 1430 1430 1430 1430 1427 1425 1425 1424 1423 1423 1421 1420 1421 1421 1422 1423 1423 1421 1416 1408 1403 1404 1403 1403 1405 1407 1409 1411 1412 1413 1414 1414 1414 1414 1414 1413 1412 1411 1409 1408 1406 1405 1404 1402 1400 1399 1398 1397 1398
1419 1422 1425 1427 1428 1429 1429 1427 1427 1426 1425 1424 1423 1422 1421 1419 1418 1418 1418 1419 1421 1415 1409 1400 1398 1400 1401 1401 1402 1404 1406 1407 1408 1410 1410 1411 1411 1411 1411 1410 1410 1409 1408 1406 1405 1404 1402 1401 1399 1398 1397 1396 1396 1395
1419 1421 1423 1426 1427 1427 1427 1426 1426 1425 1425 1423 1422 1420 1418 1417 1416 1415 1415 1415 1408 1398 1395 1392 1393 1396 1397 1397 1399 1401 1403 1405 1405 1406 1407 1407 1408 1408 1408 1407 1407 1406 1405 1404 1402 1401 1399 1398 1396 1395 1394 1393 1393 1393
1417 1421 1422 1424 1426 1424 1425 1424 1424 1423 1423 1421 1421 1419 1416 1415 1414 1414 1411 1403 1392 1385 1386 1387 1389 1390 1392 1393 1395 1396 1399 1400 1402 1403 1404 1404 1404 1404 1404 1404 1403 1401 1400 1400 1399 1397 1395 1394 1393 1391 1390 1389 1389 1389
1415 1417 1418 1418 1420 1421 1422 1421 1421 1421 1421 1420 1421 1418 1414 1412 1412 1411 1405 1389 1378 1378 1378 1379 1382 1384 1386 1388 1389 1391 1394 1396 1398 1399 1400 1400 1400 1400 1399 1399 1399 1398 1397 1395 1394 1392 1391 1390 1389 1387 1386 1386 1385 1385
1415 1415 1415 1414 1416 1418 1420 1420 1420 1421 1423 1419 1420 1415 1412 1411 1413 1411 1398 1376 1371 1371 1373 1375 1376 1379 1382 1384 1386 1389 1390 1392 1394 1395 1397 1397 1397 1396 1396 1396 1395 1394 1393 1391 1390 1388 1387 1385 1384 1383 1382 1381 1381 1381
1410 1407 1407 1405 1409 1411 1411 1418 1418 1417 1417 1417 1415 1411 1412 1412 1416 1401 1384 1373 1371 1370 1369 1370 1372 1375 1377 1380 1383 1385 1387 1389 1391 1391 1392 1392 1392 1391 1390 1389 1388 1387 1386 1385 1383 1382 1381 1379 1378 1378 1377 1377 1377 1377
1405 1401 1399 1400 1401 1403 1406 1406 1407 1409 1413 1411 1408 1411 1411 1414 1405 1382 1373 1372 1371 1370 1369 1371 1373 1375 1377 1379 1381 1383 1385 1386 1386 1387 1387 1386 1385 1384 1384 1383 1381 1380 1378 1376 1375 1374 1374 1373 1372 1371 1370 1370 1371 1372
1391 1390 1393 1394 1396 1397 1400 1403 1404 1403 1400 1398 1401 1405 1402 1400 1386 1376 1373 1372 1370 1370 1371 1372 1373 1374 1376 1377 1378 1379 1380 1381 1381 1381 1380 1379 1377 1376 1374 1373 1373 1372 1370 1368 1367 1365 1365 1365 1364 1364 1363 1363 1364 1366
1382 1381 1385 1390 1392 1393 1392 1392 1388 1386 1385 1387 1389 1387 1382 1376 1374 1373 1372 1371 1370 1369 1369 1370 1371 1372 1372 1373 1373 1374 1374 1374 1374 1373 1371 1369 1367 1369 1367 1365 1364 1363 1362 1360 1359 1357 1356 1356 1356 1356 1357 1357 1357 1359
1374 1377 1379 1381 1384 1383 1377 1380 1377 1377 1377 1377 1376 1374 1371 1368 1368 1368 1368 1367 1367 1366 1366 1366 1366 1366 1366 1366 1367 1367 1367 1366 1365 1365 1363 1362 1361 1360 1358 1356 1355 1354 1352 1350 1348 1348 1349 1348 1348 1349 1350 1351 1352 1353
1365 1370 1371 1371 1371 1370 1370 1372 1373 1372 1373 1372 1371 1371 1366 1363 1360 1359 1358 1358 1357 1356 1356 1356 1357 1358 1358 1359 1359 1359 1358 1358 1357 1357 1356 1355 1353 1350 1349 1348 1346 1345 1343 1341 1340 1339 1340 1340 1341 1342 1343 1344 1346 1348
1360 1362 1363 1368 1366 1365 1366 1369 1369 1369 1368 1367 1366 1364 1362 1361 1357 1352 1346 1345 1344 1344 1345 1345 1347 1349 1350 1351 1352 1352 1352 1352 1351 1349 1347 1345 1343 1342 1340 1339 1337 1336 1335 1334 1333 1333 1333 1334 1335 1336 1338 1339 1341 1343
1355 1358 1360 1361 1363 1364 1364 1366 1365 1365 1364 1362 1359 1357 1356 1356 1351 1344 1339 1339 1339 1339 1340 1341 1342 1344 1346 1347 1348 1348 1347 1345 1344 1342 1340 1337 1335 1333 1332 1331 1329 1329 1329 1328 1328 1328 1328 1329 1330 1332 1333 1335 1337 1340